map of CNX home
Great Circle Mapper logo
CNX - Airport
Location
City:  Chiang Mai, Thailand
Name:Chiang Mai International Airport
ICAO / IATA:VTCC / CNX

Details
Type:Airport (Aerodrome, Airfield)
Use:Public/Civil, Military, International (customs port of entry)
Latitude:1846'01"N (18.766847)
Longitude:9857'46"E (98.962644)
Datum:WGS 1984
Elevation:1036 ft (316 m)
Variation:0.77W (WMM2015 magnetic declination)
0.01 annual change
Runways:1
Longest:10171 × 148 ft (3100 × 45 m), paved

Time
Time Zone:UTC+7
Local Time:

Weather
METAR:VTCC 302230Z 00000KT 8000 FEW035 19/14 Q1016 A3002 NOSIG
TAF:VTCC 301700Z 3018/3124 VRB03KT 8000 FEW035
BECMG 3022/3024 5000 BR
BECMG 3102/3104 18005KT 8000

Related Locations
Nearby:
Farthest:SJA: 11988 mi / 19293 km
San Juan (San Juan de Marcona), PE

Find:

   beyond  
but within

Other Information
Maps:
NOTAMs:
Links:
Sources:

  
flag of Thailand   

Sectional Chart

Flight Planning
at skyvector.com

Satellite Image

Google Maps Satellite View

 

Copyright © 2004-2015 Karl L. Swartz. All rights reserved.
The Great Circle Mapper name and logo are trademarks of the Great Circle Mapper.
All other trademarks mentioned herein belong to their respective owners.
Please see credits for attibutions and further copyright information.

  Follow gcmap on Facebook Follow gcmap on Twitter

hCard Microformat

Geo Microformat